{"data":{"norad_id":65921,"epoch":"2026-05-24T18:34:14.750976Z","epoch_age_seconds":95261,"freshness":"FRESH","line1":"1 65921U 25225M   26144.77378184  .00011306  00000+0  39320-3 0  9991","line2":"2 65921  53.1566 172.5105 0000951  74.5088 285.6017 15.30204587 36057","mean_motion":15.30204587,"eccentricity":9.51e-5,"inclination_deg":53.1566,"raan_deg":172.5105,"arg_perigee_deg":74.5088,"mean_anomaly_deg":285.6017,"bstar":0.0003932,"rev_number":3605,"period_min":94.105063612647,"perigee_km":474.54962101903,"apogee_km":475.85312597767,"semimajor_km":6853.3383734983,"source":"CELESTRAK","updated_at":"2026-05-25T13:38:20.988341Z"}}